Location: Malvern Link
(52.1333°N, 2.3000°W)
Time: 19:26:52
(UTC+00:00)

ATLAS CENTAUR R/B - Pass Details

Date: 18 September 2020
Orbit: 479 x 667 km, 64.7° (Epoch: 12 October)

Event Time Altitude Azimuth Distance (km) Brightness Sun altitude
Rises 19:26:00 0° 264° (W) 2,648 6.2 -11.4°
Reaches altitude 10° 19:28:35 10° 281° (W) 1,732 5.4 -11.8°
Maximum altitude 19:31:37 22° 333° (NNW) 1,143 3.5 -12.2°
Drops below altitude 10° 19:34:35 10° 25° (NNE) 1,685 3.7 -12.6°
Sets 19:37:05 0° 42° (NE) 2,555 4.5 -13.0°
